"Pseudo-MPEC" for P11JVi0

Created 2023 Sep 27 1:22:11 UT using Find_Orb

Click here for an explanation of pseudo-MPECs

 
 Astrometry: 
     P11JVi0* C2023 09 18=7L0TWB^`W/S=Astrometry#=V0,'3Kd!DsZhy1y%M0\onw#Pw[HF51
     P11JVi0  C2023 09 18:7X!sEL]Gp0[8/l7o=-%SVN*\Q4Y2\M$oNQ:h;JywbbiTB8KOrX+F51
     P11JVi0  C2023 09 18FcgQwZ(vO0MCeredacted;;_5n6x1Y,clickSrW)D5hDx0OP0m0lF51
     P11JVi0  C2023 09 18i9#p6hfO#ZeUEEayqr\o.J9`Zh6k67Ym:**\p3:*hereyIPxeOo]F51
     P11JVi0  C2023 09 181dE[W,pyv;iQforRIxGS\)#pC-om7explanationGX@oQZ;gk!]jF51

Station data:
(F51) Pan-STARRS 1, Haleakala  (N20.707234 W156.255910)  US/Hawaii.
   Observers J. Bulger, T. Lowe, A. Schultz, M. Willman. Measurers K.
   Chambers, S. Chastel, T. de Boer, L. Denneau, J. Fairlamb, H. Flewelling,
   M. Huber, C.-C. Lin, E. Magnier, Y. Ramanjooloo, R. Wainscoat, R. Weryk.
   1.8-m Ritchey-Chrétien + CCD.

Orbital elements:  P11JVi0
   Perihelion 2023 Jul 12.30259 +/- 149 TT =  7:15:43 (JD 2460137.80259)
Epoch 2023 Sep 19.0 TT = JDT 2460206.5   Earth MOID: 0.0650      AutoNEOCP
M  27.51325464 +/- 110              (J2000 ecliptic)
n   0.40049915 +/- 0.22             Peri.  189.27232 +/- 22
a   1.82278303 +/- 0.667            Node   112.77692 +/- 43
e   0.4081394 +/- 0.122             Incl.    9.47475 +/- 5.4
P   2.46/898.86d           H 22.19  G  0.15   U 11.7  SR
q 1.07883345 +/- 0.21    Q 2.56673260 +/- 0.595
From 5 observations 2023 Sept. 18 (1.8 hr); mean residual 0".25
Residuals in arcseconds: 
230918 F51  .17+  .42+    230918 F51  .40-  .34-    230918 F51  .16+  .23+    
230918 F51  .14+  .20-    230918 F51  .08-  .11-    

Ephemerides (geocentric):
Date (UTC) HH   RA             Dec           delta  r     elong  mag " sig PA
---- --------  ------------   ------------  ------ ------ -----  --- --------
2023 09 27 01  02 50 27.794   -17 14 52.23  .40416 1.3265 136.8 22.2 2987 116
2023 09 27 02  02 50 24.640   -17 15 05.56  .40428 1.3267 136.9 22.2 3021 116
2023 09 27 03  02 50 21.480   -17 15 18.83  .40440 1.3269 136.9 22.2 3055 117
2023 09 27 04  02 50 18.316   -17 15 32.06  .40452 1.3271 136.9 22.2 3091 117
2023 09 27 05  02 50 15.147   -17 15 45.24  .40464 1.3274 137.0 22.2 3127 117
2023 09 27 06  02 50 11.973   -17 15 58.37  .40476 1.3276 137.0 22.2 3164 118
2023 09 27 07  02 50 08.795   -17 16 11.46  .40488 1.3278 137.1 22.2 3202 118
2023 09 27 08  02 50 05.612   -17 16 24.49  .40499 1.3280 137.1 22.2 3241 118
2023 09 27 09  02 50 02.424   -17 16 37.47  .40511 1.3282 137.1 22.2 3280 119
2023 09 27 10  02 49 59.231   -17 16 50.41  .40523 1.3285 137.2 22.2 3321 119
2023 09 27 11  02 49 56.034   -17 17 03.30  .40535 1.3287 137.2 22.2 3362 119
2023 09 27 12  02 49 52.832   -17 17 16.14  .40547 1.3289 137.2 22.2 3405 119
2023 09 27 13  02 49 49.626   -17 17 28.93  .40559 1.3291 137.3 22.2 3448 120
2023 09 27 14  02 49 46.415   -17 17 41.67  .40572 1.3294 137.3 22.2 3493 120
2023 09 27 15  02 49 43.199   -17 17 54.36  .40584 1.3296 137.3 22.2 3538 120
2023 09 27 16  02 49 39.979   -17 18 07.00  .40596 1.3298 137.4 22.2 3585 121
2023 09 27 17  02 49 36.754   -17 18 19.59  .40608 1.3300 137.4 22.2 3633 121
2023 09 27 18  02 49 33.525   -17 18 32.14  .40620 1.3302 137.5 22.2 3682 121
2023 09 27 19  02 49 30.291   -17 18 44.63  .40632 1.3305 137.5 22.2 3732 122
2023 09 27 20  02 49 27.052   -17 18 57.08  .40644 1.3307 137.5 22.2 3783 122
2023 09 27 21  02 49 23.809   -17 19 09.48  .40656 1.3309 137.6 22.2 3836 122
2023 09 27 22  02 49 20.561   -17 19 21.82  .40668 1.3311 137.6 22.2 3889 122
2023 09 27 23  02 49 17.309   -17 19 34.12  .40681 1.3314 137.6 22.2 3945 123
2023 09 28 00  02 49 14.052   -17 19 46.37  .40693 1.3316 137.7 22.2 4001 123
2023 09 28 01  02 49 10.791   -17 19 58.57  .40705 1.3318 137.7 22.2 4059 123
2023 09 28 02  02 49 07.525   -17 20 10.72  .40717 1.3320 137.7 22.2 4118 123
2023 09 28 03  02 49 04.255   -17 20 22.82  .40729 1.3322 137.8 22.2 4179 124
2023 09 28 04  02 49 00.980   -17 20 34.87  .40742 1.3325 137.8 22.2 4241 124
2023 09 28 05  02 48 57.701   -17 20 46.87  .40754 1.3327 137.8 22.2 4305 124
2023 09 28 06  02 48 54.417   -17 20 58.82  .40766 1.3329 137.9 22.2 4371 124
2023 09 28 07  02 48 51.129   -17 21 10.72  .40779 1.3331 137.9 22.2 4438 124
2023 09 28 08  02 48 47.836   -17 21 22.57  .40791 1.3334 138.0 22.2 4507 125
2023 09 28 09  02 48 44.539   -17 21 34.37  .40803 1.3336 138.0 22.2 4578 125
2023 09 28 10  02 48 41.238   -17 21 46.12  .40815 1.3338 138.0 22.2 4650 125
2023 09 28 11  02 48 37.932   -17 21 57.82  .40828 1.3340 138.1 22.2 4725 125
2023 09 28 12  02 48 34.621   -17 22 09.47  .40840 1.3343 138.1 22.2 4801 125
2023 09 28 13  02 48 31.307   -17 22 21.07  .40853 1.3345 138.1 22.2 4880 126
2023 09 28 14  02 48 27.988   -17 22 32.62  .40865 1.3347 138.2 22.2 4960 126
2023 09 28 15  02 48 24.664   -17 22 44.12  .40877 1.3349 138.2 22.2 5043 126
2023 09 28 16  02 48 21.337   -17 22 55.57  .40890 1.3351 138.2 22.2 5128 126
2023 09 28 17  02 48 18.004   -17 23 06.97  .40902 1.3354 138.3 22.2 5215 126
2023 09 28 18  02 48 14.668   -17 23 18.32  .40915 1.3356 138.3 22.2 5304 126
2023 09 28 19  02 48 11.327   -17 23 29.61  .40927 1.3358 138.3 22.2 5396 127
2023 09 28 20  02 48 07.982   -17 23 40.86  .40940 1.3360 138.4 22.2 5491 127
2023 09 28 21  02 48 04.633   -17 23 52.06  .40952 1.3363 138.4 22.2 5588 127
2023 09 28 22  02 48 01.279   -17 24 03.21  .40965 1.3365 138.5 22.2 5688 127
2023 09 28 23  02 47 57.921   -17 24 14.30  .40977 1.3367 138.5 22.2 5791 127
2023 09 29 00  02 47 54.559   -17 24 25.35  .40990 1.3369 138.5 22.2 5896 127